Tracking 30298 objects as of 27-Apr-2025
HD Live streaming from Space Station
objects crossing your sky now

COSMOS 2269

Track COSMOS 2269 now!
10-day predictions
COSMOS 2269 is classified as:


NORAD ID: 23000
Int'l Code: 1994-011B
Perigee: 1,416.1 km
Apogee: 1,428.1 km
Inclination: 82.6 °
Period: 114.1 minutes
Semi major axis: 7793 km
RCS: 1.1181 m2 (large)
Launch date: February 12, 1994
Source: Commonwealth of Independent States (former USSR) (CIS)
Launch site: PLESETSK MISSILE AND SPACE COMPLEX (PKMTR)
Your satellite tracking list
Your tracking list is empty




NASA's NSSDC Master Catalog

Two Line Element Set (TLE):
1 23000U 94011B   25116.80240481  .00000014  00000-0  18038-4 0  9991
2 23000  82.5695 226.9706 0007729  60.8098  58.4185 12.61930308437154
Source of the keplerian elements: AFSPC